Погода в Нюкёбинге

Дания     54°46′11″N   11°52′19″E
темп.,
°C
ветер,
м/с
пор.,
м/с
влажн.,
%
обл.,
%
осадки,
мм/ч
давл.,
гПа
погр.,
м
15 августа, пн
пн1523:00+20в61283100 0.0 1009317
02:00+18всв489689 0.0 1008218
05:00+19вюв349669 0.0 100687
08:00+22вюв58745 0.0 1007286
11:00+25юв57582 0.0 1006634
14:00+28вюв67465 0.0 10051340
17:00+28в784946 0.0 10051008
20:00+23в697099 0.1 1004302
16 августа, вт
вт1623:00+21в488924 0.6 1004189
02:00+20ююв349218 2.0 100468
05:00+19зюз379485 0.9 1004162
08:00+21юз58845 0.9 1006333
11:00+24зюз68640 0.0 1008704
14:00+27зюз574434 0.0 10091071
17:00+28ююз244017 0.0 1009989
20:00+24ююв125288 0.0 100924
17 августа, ср
ср1723:00+21юв1168100 0.3 101112
02:00+20вюв237498 0.5 101126
05:00+20юв3371100 0.0 101142
08:00+23вюв346798 0.0 1012158
11:00+26вюв4451100 0.0 1012447
14:00+28вюв4441100 0.0 1012857
17:00+25в5756100 0.8 1013279
20:00+21св4677100 2.8 101395
18 августа, чт
чт1823:00+19всв3682100 4.4 1013108
02:00+20всв41085100 5.5 1012183
05:00+19всв359395 0.1 1012113
08:00+21всв369197 0.1 1012226
11:00+25вюв446884 0.0 1012459
14:00+28вюв3352100 0.0 1011802
17:00+28вюв4554100 0.0 1011604
20:00+20ю2483100 1.2 101294
19 августа, пт
пт1923:00+19ссв4791100 0.6 1011184
02:00+19в118864 0.6 101113
05:00+18с339040 0.0 101147
08:00+20ссз468960 0.3 1011285
11:00+24ссв446855 0.0 1011708
14:00+27св235535 0.0 10101002
17:00+26зюз12606 0.1 1009697
20:00+21сз468540 0.6 1009164